Location: Sagn�
(15.2046°N, 12.7898°W)
Time: 13:06:33
(UTC+00:00)

Mugunghwa Rocket - Pass Details

Date: 08 May 2021
Orbit: 936 x 1372 km, 26.7° (Epoch: 14 June)

Event Time Altitude Azimuth Distance (km) Brightness Sun altitude
Rises 20:18:32 0° 246° (WSW) 3,574 7.6 -16.1°
Reaches altitude 10° 20:21:06 10° 246° (WSW) 2,637 6.9 -16.7°
Maximum altitude 20:27:25 89° 323° (NW) 967 3.9 -18.1°
Enters shadow 20:32:52 17° 66° (ENE) 2,340 5.6 -19.3°
